Theta_e
313 313 312 312 312 312 311 311 311 311 312 312 312 312 312 311 310 311 311 311 312 315 315 314 314 314 311 308 309 306 307 308 310 311 312 313 314 313 314 315 315 315 338 349 355
313 313 312 312 311 311 311 310 310 311 311 312 311 311 311 310 311 310 310 311 309 311 315 313 313 312 308 307 307 309 306 308 308 310 313 313 313 313 314 314 315 315 317 351 355
312 311 311 311 311 311 311 310 311 310 310 310 310 310 310 310 309 309 320 318 316 318 317 316 315 311 310 306 306 308 309 309 311 311 310 312 312 313 314 313 314 316 315 320 346
310 310 310 310 310 310 310 310 310 310 310 308 308 309 310 310 304 312 319 317 314 318 321 319 316 311 308 309 307 308 307 311 311 311 311 312 313 313 313 312 314 314 314 317 317
310 310 309 309 309 309 308 308 308 308 309 309 308 309 310 309 310 307 314 310 312 318 319 318 314 311 308 307 308 307 308 309 310 310 310 311 312 311 311 311 312 311 312 313 313
308 308 308 307 306 305 307 307 308 308 308 309 309 309 310 310 308 307 309 311 318 319 321 319 316 312 311 309 308 309 308 310 309 307 307 309 310 311 311 311 311 311 312 311 311
305 306 305 305 306 305 307 308 308 308 308 308 309 309 310 309 308 309 310 309 309 320 319 322 317 316 312 313 310 310 310 309 308 308 308 309 310 310 310 311 312 311 311 311 310
304 303 301 302 304 302 303 302 302 306 307 308 308 309 311 310 310 310 311 311 311 309 316 318 317 312 310 309 310 310 308 312 309 308 308 308 310 310 311 311 312 312 311 311 310
304 303 302 304 305 305 303 304 305 307 309 308 309 310 312 311 313 314 314 312 312 312 314 318 314 314 311 315 311 309 311 308 310 308 310 308 310 311 311 311 312 311 310 311 310
304 302 302 302 303 302 304 305 308 309 310 311 313 314 311 314 315 316 316 313 316 315 315 318 315 312 308 310 314 312 310 310 310 311 309 310 310 310 311 311 311 311 310 310 311
304 302 302 302 303 304 304 306 305 309 312 314 314 316 315 315 315 316 317 315 315 316 319 317 320 317 314 310 310 311 311 311 312 311 311 311 310 311 312 310 309 309 309 309 311
302 302 302 304 304 304 306 303 306 310 311 311 312 313 313 313 315 314 314 317 318 319 316 319 321 319 316 313 313 313 312 311 313 314 312 312 311 311 311 311 310 311 311 311 312
301 301 303 304 304 305 303 303 303 305 307 311 312 313 314 314 316 316 314 314 318 317 316 318 319 319 319 318 317 312 312 312 314 315 314 313 313 312 313 312 313 311 311 311 312
300 301 303 303 303 303 302 302 303 306 311 313 315 315 315 315 317 315 315 317 317 318 317 317 316 317 320 320 317 318 314 314 315 316 314 313 313 313 313 314 312 312 311 312 314
300 300 303 303 303 302 303 303 306 307 304 309 321 318 314 316 316 322 315 315 319 317 316 318 316 316 318 320 319 318 317 316 317 317 315 315 312 313 313 315 314 314 314 315 325
300 300 302 303 303 303 303 305 307 308 310 314 319 313 316 318 323 322 318 317 317 316 315 317 316 316 317 318 320 319 320 320 318 317 317 316 313 312 314 315 316 317 315 326 329
300 301 302 303 302 305 306 305 310 313 310 315 316 314 314 321 322 325 324 324 323 324 323 322 319 317 318 319 318 321 322 328 324 319 320 314 313 313 314 316 317 319 321 324 325
301 302 303 304 305 305 306 309 309 307 311 311 312 315 316 321 322 325 321 325 325 322 322 326 323 319 320 321 321 321 324 325 329 319 319 313 315 313 321 322 320 320 322 325 334
301 302 306 309 306 305 307 312 308 313 314 315 316 318 321 321 322 323 323 321 324 323 326 326 325 322 320 320 322 320 323 319 315 326 321 316 318 326 328 326 325 327 329 333 334
301 301 307 309 309 310 314 313 312 314 314 316 319 319 321 321 322 323 324 323 325 324 322 324 327 323 322 320 320 322 318 320 322 323 325 324 333 332 330 328 325 327 326 331 333
301 299 308 310 311 315 316 316 315 312 312 316 319 319 319 320 320 324 324 324 324 323 323 324 324 324 322 323 322 321 322 321 317 318 322 327 329 329 328 327 326 325 325 327 329
300 297 308 307 309 312 312 310 310 311 313 314 316 317 319 318 320 320 322 324 324 324 325 324 324 326 323 323 323 322 320 318 318 321 320 324 330 329 325 325 325 325 328 325 322
302 301 306 307 310 306 308 308 308 312 314 315 315 317 318 319 319 319 320 321 322 323 326 324 324 326 324 325 322 325 324 319 316 319 323 324 327 327 326 324 324 324 325 325 323
302 305 304 302 307 305 306 308 311 309 311 312 314 316 316 317 316 319 319 322 322 323 325 324 321 323 324 324 324 326 325 321 320 319 323 323 334 329 330 328 324 324 323 324 322
302 304 304 302 302 303 304 307 309 311 311 311 314 316 316 317 315 316 318 319 321 323 323 325 325 323 325 327 327 327 327 328 322 321 324 327 331 329 329 329 327 324 325 327 321
299 300 302 303 303 304 304 308 309 308 309 310 312 311 314 315 316 318 316 318 322 323 322 322 327 324 325 324 326 328 328 329 329 327 328 330 331 326 326 325 326 325 326 323 319
301 302 302 302 304 305 306 307 307 308 308 309 309 311 314 316 314 314 314 316 317 320 321 322 321 325 327 325 325 328 325 327 329 328 328 329 328 325 325 324 325 324 325 322 320
Wind_Speed
18 20 20 19 20 22 24 25 25 24 21 21 21 22 23 24 29 25 11 26 24 11 20 18 5 4 4 3 5 4 1 5 6 7 5 1 3 6 4 4 5 7 3 4 28
19 19 20 20 21 22 22 24 26 23 22 21 20 21 23 26 31 16 30 27 27 21 12 15 7 4 1 3 3 5 5 9 7 5 2 1 2 5 6 7 6 7 14 19 24
19 19 19 20 22 20 21 22 23 25 24 21 20 20 21 24 7 8 13 14 2 17 13 9 7 8 4 4 4 5 7 7 4 6 6 6 3 3 6 8 6 3 5 6 9
20 20 22 20 21 21 22 22 22 22 24 23 22 20 20 11 7 2 7 9 11 13 15 7 4 7 6 7 6 4 8 12 2 6 3 4 3 4 7 10 4 4 2 1 6
21 22 24 24 24 26 26 24 25 24 21 20 19 16 14 3 13 15 13 22 4 14 18 7 5 5 6 5 6 6 4 5 9 10 8 9 12 6 11 11 11 7 6 6 6
21 22 24 26 28 29 28 28 27 26 23 19 15 10 6 15 13 10 8 5 2 19 16 12 9 9 4 4 7 5 13 17 15 11 5 7 12 6 5 12 11 9 10 8 8
24 25 25 26 27 28 28 29 31 31 25 20 14 10 12 28 12 9 9 18 13 15 4 19 16 7 7 4 5 10 11 7 8 6 8 4 19 19 10 11 11 11 10 9 9
25 26 26 27 27 29 30 32 34 32 27 21 14 10 10 17 22 31 30 26 17 20 23 16 18 5 4 4 8 4 6 15 5 10 6 10 24 9 9 10 11 10 10 9 11
27 28 29 29 28 30 35 39 37 28 16 9 9 9 11 11 9 14 19 12 13 18 18 10 7 5 3 5 5 5 4 4 3 8 5 11 8 7 10 10 10 9 9 11 10
28 31 32 31 29 31 36 37 11 5 9 11 3 5 8 6 5 4 3 15 4 10 3 7 5 5 5 6 12 6 3 5 6 5 8 12 13 9 8 6 10 10 10 9 10
29 31 33 36 34 34 34 10 3 2 5 8 11 8 7 6 13 4 8 9 4 5 7 7 6 13 8 8 4 6 6 7 1 7 9 9 7 9 9 7 9 10 10 11 13
33 34 37 36 36 33 4 1 5 1 11 19 26 26 34 20 15 27 9 3 7 9 7 4 18 10 8 10 13 13 14 17 3 3 3 5 10 10 9 9 9 14 13 13 8
37 37 34 38 37 6 10 13 5 10 4 10 8 11 8 15 14 21 9 9 6 9 11 12 6 15 12 13 13 12 17 10 4 4 6 4 9 7 12 9 16 11 12 10 12
41 40 35 33 14 13 13 1 9 7 3 7 4 5 5 6 7 10 15 8 6 14 13 11 13 14 15 19 11 15 6 7 4 2 4 3 6 6 8 13 9 17 8 10 8
43 45 36 25 17 7 4 15 15 4 4 2 3 4 5 5 7 5 11 9 8 7 7 9 11 17 20 14 14 9 4 5 5 6 4 7 2 8 3 8 7 8 9 4 5
46 46 44 17 8 21 18 11 1 4 7 6 4 9 8 5 4 1 3 3 5 5 8 10 6 13 23 15 14 12 11 4 6 1 3 16 10 5 4 7 1 2 4 7 5
51 53 33 9 5 4 4 1 4 3 7 1 7 15 13 5 4 2 2 8 7 9 13 4 11 5 8 13 13 11 5 1 3 4 11 5 6 9 5 5 3 4 8 7 6
51 42 17 6 5 9 6 4 3 3 7 14 15 20 6 1 1 2 1 7 16 5 4 9 5 15 9 9 6 12 10 4 5 5 11 3 7 3 7 9 3 5 8 6 8
50 30 12 11 5 10 3 2 4 3 13 15 20 9 3 2 3 3 6 5 6 15 9 4 6 2 8 11 14 5 18 14 1 2 2 3 3 2 12 10 10 15 12 5 7
29 14 13 3 11 2 2 5 3 8 10 10 8 4 6 8 7 4 6 8 6 14 9 6 2 4 4 5 11 15 8 5 4 4 2 3 2 0 6 8 7 14 5 8 7
10 4 4 11 1 2 3 4 4 13 5 4 9 10 9 7 5 6 6 8 6 3 17 3 2 2 3 4 10 7 6 3 5 4 5 3 0 2 1 5 6 7 7 1 10
8 4 6 16 3 2 4 12 13 11 12 13 10 12 12 2 6 5 5 5 4 4 7 11 3 5 11 2 4 10 8 14 5 5 3 4 2 1 3 6 10 8 6 3 10
5 3 6 3 2 3 4 9 6 12 10 6 8 4 6 6 5 10 8 4 6 4 8 7 3 4 2 2 7 5 5 4 4 3 6 5 4 5 4 11 9 6 6 5 12
2 4 4 4 2 3 5 6 6 9 13 11 10 4 6 5 7 6 8 3 1 3 1 4 4 4 7 2 6 9 9 6 7 4 5 5 8 6 6 10 7 7 5 6 7
1 3 3 4 5 9 5 6 7 9 4 9 5 10 17 5 7 9 9 7 3 1 2 2 7 5 4 2 1 4 8 7 5 7 6 9 11 15 17 16 6 4 4 10 8
2 3 2 8 10 7 6 4 6 13 6 10 8 19 16 9 6 10 11 6 3 1 1 2 4 6 6 2 5 4 2 5 2 7 6 11 5 7 9 12 14 6 6 11 12
4 6 3 5 6 7 4 8 17 18 10 8 15 19 14 12 7 13 14 11 12 8 3 2 4 6 6 7 5 8 11 6 4 1 11 5 7 14 16 15 17 14 9 12 9
Wind_Direction
341 339 339 336 331 328 329 330 332 333 332 331 330 328 325 321 315 305 245 256 260 282 249 244 242 189 199 211 182 123 109 227 225 166 233 229 46 306 277 265 302 312 272 266 134
338 336 335 332 330 328 326 326 326 329 328 326 324 324 323 324 312 265 289 274 260 245 206 184 185 159 153 230 224 163 174 224 208 205 280 273 45 338 327 332 309 343 15 82 129
336 334 331 324 325 326 324 321 322 322 321 320 319 320 323 328 310 245 61 54 250 214 212 200 155 155 193 177 213 199 219 239 219 220 243 263 272 244 269 292 248 321 356 28 111
332 331 329 329 327 324 320 316 314 313 313 316 320 320 325 321 291 175 182 26 16 186 207 161 147 150 192 201 218 228 229 232 276 230 256 258 240 265 251 249 236 244 258 207 145
334 332 330 328 321 316 317 313 314 311 306 305 313 323 331 299 252 244 250 299 317 167 191 199 154 152 176 201 230 218 241 233 242 256 259 277 257 245 255 262 275 245 206 226 241
324 321 318 315 312 313 311 309 308 307 304 300 296 300 273 270 251 290 299 351 188 185 186 178 190 197 223 212 185 226 213 235 248 253 245 272 279 202 235 252 265 259 253 235 235
328 328 328 324 320 316 313 311 307 302 296 290 280 274 259 245 262 275 265 287 277 210 184 209 209 183 180 314 229 232 266 275 234 230 244 200 279 248 235 244 240 260 264 266 209
337 335 334 330 326 320 317 312 305 298 292 277 259 240 252 265 277 275 270 265 259 232 232 237 213 209 163 301 342 270 169 244 217 180 222 150 256 292 212 202 232 239 265 266 271
339 338 338 333 327 320 321 317 308 302 292 239 189 202 258 294 258 274 239 227 203 217 221 216 153 191 161 233 323 263 244 211 277 196 206 184 262 254 213 210 231 249 234 258 276
337 337 338 336 329 326 323 319 1 78 107 142 215 197 257 252 220 205 163 186 210 154 180 196 187 181 171 167 216 235 209 208 193 215 202 243 253 258 259 237 241 252 261 247 257
338 338 338 337 330 326 324 343 23 59 229 203 210 228 289 240 296 184 123 133 263 153 170 189 193 216 196 209 250 296 278 248 192 247 197 240 257 253 256 248 245 247 252 258 257
339 338 338 335 330 328 351 174 236 16 289 239 248 248 248 273 285 272 260 207 180 198 149 198 228 203 210 199 214 239 261 262 291 259 215 278 271 260 247 248 224 239 239 242 250
339 339 337 335 330 315 306 275 308 339 270 280 228 247 236 206 239 262 189 199 190 196 187 210 194 197 208 221 214 218 223 240 218 314 280 291 290 286 271 242 243 239 230 242 237
336 337 334 334 324 318 286 283 314 314 341 278 219 254 150 134 211 236 198 206 193 201 207 230 220 245 216 219 209 235 205 224 227 252 236 128 280 282 276 256 220 231 221 234 236
335 336 330 323 286 282 287 313 322 146 335 258 98 57 135 190 287 26 181 206 200 172 161 219 199 219 241 239 224 245 209 227 212 233 264 254 290 261 330 265 240 213 226 210 216
334 333 332 331 239 270 298 307 32 37 257 322 72 10 338 266 299 74 115 283 206 226 219 216 225 206 230 233 233 234 269 335 349 126 250 243 198 279 232 223 201 20 208 173 133
334 332 331 260 232 95 9 31 42 177 324 339 354 341 319 266 300 341 235 289 245 203 231 302 255 232 216 220 228 212 143 123 226 194 234 205 181 226 289 269 174 209 153 127 134
335 339 352 296 258 228 343 59 186 262 273 312 340 327 264 4 257 52 339 234 245 204 146 198 239 200 193 196 184 206 187 178 161 199 231 198 224 234 285 265 129 64 104 100 105
337 347 3 3 175 192 92 92 228 281 338 339 323 297 264 236 255 258 205 206 270 213 183 226 235 214 192 210 189 225 184 200 196 19 134 213 250 184 5 6 103 107 93 72 87
335 329 343 48 129 332 13 234 262 8 329 332 290 227 286 315 295 222 222 208 219 215 187 215 214 218 195 188 201 208 154 204 198 205 182 260 90 47 346 329 350 94 51 131 105
355 4 348 105 292 79 262 307 318 285 272 274 295 300 280 303 321 273 245 277 263 254 202 135 151 183 39 210 188 188 186 125 156 172 179 165 9 274 261 351 38 61 71 116 109
345 345 160 317 63 347 355 319 314 285 315 290 256 252 260 249 259 261 262 252 309 225 182 177 175 210 211 261 272 199 184 180 172 216 211 148 177 138 106 50 50 27 87 84 90
333 284 340 10 67 317 304 297 270 300 314 312 314 326 344 285 288 240 251 220 217 230 182 156 216 133 125 40 278 196 192 164 152 131 186 125 189 210 109 56 45 31 40 59 92
331 330 332 24 335 342 319 293 306 304 304 321 286 266 293 279 261 283 304 309 353 239 179 153 216 194 189 177 173 196 192 172 162 137 177 171 142 194 171 93 58 63 41 47 72
352 316 27 307 323 313 282 273 321 329 287 300 313 321 320 283 287 259 273 268 262 208 104 218 215 167 106 114 64 207 190 152 169 172 162 173 163 181 170 139 121 104 117 98 85
22 344 343 286 283 285 297 275 316 317 323 291 322 316 305 251 246 290 301 307 354 127 338 54 274 152 169 325 104 21 301 144 176 117 85 130 67 130 138 118 137 186 119 111 108
338 291 268 290 286 298 264 313 307 309 295 285 306 305 303 302 293 278 286 261 272 286 222 218 233 137 175 161 130 216 236 194 149 177 136 148 166 147 149 151 164 158 147 123 132